Zurück zum Katalog

CZ-6A DEB

AktivPO
NORAD 61300·DEBRIS·🇨🇳 China

Gestartet Aug 6, 2024 von Taiyuan Satellite Launch Center

Loading…

Nächste Überflüge (nächste 24 Stunden)

TLE

AktuellSource: Space-Track

Epoche: Sep 14, 2026, 10:46 UTC

1 61300U 24140TM  26257.44879361  .00004952  00000-0  83396-3 0  9997
2 61300  89.0303 262.3028 0131653 315.9900  43.0890 14.63794632108990

Verfolge CZ-6A DEB in Echtzeit mit AllMySat

Download on the App Store